Iridium Next SV175
operational LEOCIRCULARPOLAR
Über Iridium Next SV175
Group: 3 satellites
Beschreibung wird geladen...
Live-Position
3D-Globus wird geladen...
Nächste Überflüge
Höhenverlauf
Altitude vs Time
uPlot chart will show altitude changes over time
Zweizeiliger Elementsatz
1 43928U 19002G 25352.08830954 .00000781 00000-0 11993-3 0 9994
2 43928 86.1498 11.3781 0003219 86.9596 273.1988 14.72245116372590
Epoch: 18. Dez. 2025 •
Age: 17 hours
Aktueller Status
Höhe 661.4 km
Geschwindigkeit 7.53 km/s
Subsatellitenpunkt 56.44°N,
8.9°E
Startdatum 11. Jan. 2019
Alter 6.9 years
Typ communications
Technische Details
Klassifizierung Payload
Masse 860.00 kg
Trockenmasse 700.00 kg
Gesamtmasse 860.00 kg
Länge 3.10 m
Durchmesser 1.50 m
Spannweite 9.40 m
Form Half Hex Prism+2 pan
Hersteller NGISGA
Bus-Typ EliteBus
Phasenstatus In Orbit
Besitzer/Staat IRIDS/US
Große Konstellationen
Loading constellations...